Whangarei (NZWR)

Aerodrome — Elev 133
New Zealand
S035.46.05.999 E174.21.54.000
Loading chart...

Current Weather

NZWR 210100Z 27007KT 200V340 20KM FEW035 SCT049 BKN065 17/10 Q1008 RMK AUTO VATS

Published 34 minutes ago

Airport Activity

Loading chart...
Loading chart...

Positions

CallsignRadio Name / Freq / Voice Room / TypeFrequencyVoice RoomType
NZAA_CTR Auckland Control
123.900
nzaa_ctr
123.900nzaa_ctr
NZCH-R_CTR Auckland Control
126.000
nzch-r_ctr
126.000nzch-r_ctr
UNICOM NZZC UNICOM
122.800
unicom_nzzc
122.800unicom_nzzc

Charts

Ground Charts

Aerodrome (1) & (2)

Departure Charts

SID RWY 06 & 24